Time,TemperatureF,DewpointF,PressureIn,WindDirection,WindDirectionDegrees,WindSpeedMPH,WindSpeedGustMPH,Humidity,HourlyPrecipIn,Conditions,Clouds,dailyrainin,SoftwareType,DateUTC
2013-05-02 00:00:00,40.0,39.0,29.90,South,170,40.0,53.0,96,-99.99,,,-99.99,,2013-05-02 08:00:00,
2013-05-02 00:42:00,40.0,39.0,29.90,South,170,40.0,53.0,96,-99.99,,,-99.99,,2013-05-02 08:42:00,
2013-05-02 00:52:00,40.0,39.0,29.90,South,170,40.0,53.0,96,-99.99,,,-99.99,,2013-05-02 08:52:00,
2013-05-02 01:00:00,41.0,39.0,29.94,South,170,33.0,51.0,92,-99.99,,,-99.99,,2013-05-02 09:00:00,
2013-05-02 01:42:00,41.0,39.0,29.94,South,170,33.0,51.0,92,-99.99,,,-99.99,,2013-05-02 09:42:00,
2013-05-02 01:52:00,41.0,39.0,29.94,South,170,33.0,51.0,92,-99.99,,,-99.99,,2013-05-02 09:52:00,
2013-05-02 02:00:00,41.0,39.0,29.96,South,170,33.0,48.0,92,-99.99,,,-99.99,,2013-05-02 10:00:00,
2013-05-02 02:42:00,41.0,39.0,29.96,South,170,33.0,48.0,92,-99.99,,,-99.99,,2013-05-02 10:42:00,
2013-05-02 02:52:00,41.0,39.0,29.96,South,170,33.0,48.0,92,-99.99,,,-99.99,,2013-05-02 10:52:00,
2013-05-02 03:00:00,41.0,39.0,29.96,South,180,33.0,44.0,92,-99.99,,,-99.99,,2013-05-02 11:00:00,
2013-05-02 03:41:00,41.0,39.0,29.96,South,180,33.0,44.0,92,-99.99,,,-99.99,,2013-05-02 11:41:00,
2013-05-02 03:52:00,41.0,39.0,29.96,South,180,33.0,44.0,92,-99.99,,,-99.99,,2013-05-02 11:52:00,
2013-05-02 04:00:00,40.0,39.0,29.98,South,170,34.0,44.0,96,-99.99,,,-99.99,,2013-05-02 12:00:00,
2013-05-02 04:41:00,40.0,39.0,29.98,South,170,34.0,44.0,96,-99.99,,,-99.99,,2013-05-02 12:41:00,
2013-05-02 04:52:00,40.0,39.0,29.98,South,170,34.0,44.0,96,-99.99,,,-99.99,,2013-05-02 12:52:00,
2013-05-02 05:00:00,40.0,39.0,29.99,South,180,32.0,44.0,96,-99.99,,,-99.99,,2013-05-02 13:00:00,
2013-05-02 05:41:00,40.0,39.0,29.99,South,180,32.0,44.0,96,-99.99,,,-99.99,,2013-05-02 13:41:00,
2013-05-02 05:52:00,40.0,39.0,29.99,South,180,32.0,44.0,96,-99.99,,,-99.99,,2013-05-02 13:52:00,
2013-05-02 06:00:00,41.0,39.0,29.99,South,170,31.0,41.0,92,-99.99,,,-99.99,,2013-05-02 14:00:00,
2013-05-02 06:42:00,41.0,39.0,29.99,South,170,31.0,41.0,92,-99.99,,,-99.99,,2013-05-02 14:42:00,
2013-05-02 06:52:00,41.0,39.0,29.99,South,170,31.0,41.0,92,-99.99,,,-99.99,,2013-05-02 14:52:00,
2013-05-02 07:00:00,43.0,40.0,30.01,South,170,37.0,52.0,88,-99.99,,,-99.99,,2013-05-02 15:00:00,
2013-05-02 07:43:00,43.0,40.0,30.01,South,170,37.0,52.0,88,-99.99,,,-99.99,,2013-05-02 15:43:00,
2013-05-02 08:00:00,41.0,39.0,30.03,South,180,32.0,46.0,92,-99.99,,,-99.99,,2013-05-02 16:00:00,
2013-05-02 08:42:00,41.0,39.0,30.03,South,180,32.0,46.0,92,-99.99,,,-99.99,,2013-05-02 16:42:00,
2013-05-02 08:52:00,41.0,39.0,30.03,South,180,32.0,46.0,92,-99.99,,,-99.99,,2013-05-02 16:52:00,
2013-05-02 09:00:00,42.0,39.0,30.05,South,180,29.0,40.0,88,-99.99,,,-99.99,,2013-05-02 17:00:00,
2013-05-02 09:41:00,42.0,39.0,30.05,South,180,29.0,40.0,88,-99.99,,,-99.99,,2013-05-02 17:41:00,
2013-05-02 09:51:00,42.0,39.0,30.05,South,180,29.0,40.0,88,-99.99,,,-99.99,,2013-05-02 17:51:00,
2013-05-02 10:00:00,43.0,39.0,30.08,South,170,32.0,43.0,85,-99.99,,,-99.99,,2013-05-02 18:00:00,
2013-05-02 10:41:00,43.0,39.0,30.08,South,170,32.0,43.0,85,-99.99,,,-99.99,,2013-05-02 18:41:00,
2013-05-02 10:51:00,43.0,39.0,30.08,South,170,32.0,43.0,85,-99.99,,,-99.99,,2013-05-02 18:51:00,
2013-05-02 11:00:00,43.0,39.0,30.08,South,170,31.0,46.0,85,-99.99,,,-99.99,,2013-05-02 19:00:00,
2013-05-02 11:41:00,43.0,39.0,30.08,South,170,31.0,46.0,85,-99.99,,,-99.99,,2013-05-02 19:41:00,
2013-05-02 11:52:00,43.0,39.0,30.08,South,170,31.0,46.0,85,-99.99,,,-99.99,,2013-05-02 19:52:00,
2013-05-02 12:00:00,42.0,39.0,30.12,South,170,34.0,44.0,88,-99.99,,,-99.99,,2013-05-02 20:00:00,
2013-05-02 12:41:00,42.0,39.0,30.12,South,170,34.0,44.0,88,-99.99,,,-99.99,,2013-05-02 20:41:00,
2013-05-02 12:52:00,42.0,39.0,30.12,South,170,34.0,44.0,88,-99.99,,,-99.99,,2013-05-02 20:52:00,
2013-05-02 13:00:00,42.0,39.0,30.14,South,170,32.0,44.0,88,-99.99,,,-99.99,,2013-05-02 21:00:00,
2013-05-02 13:42:00,42.0,39.0,30.14,South,170,32.0,44.0,88,-99.99,,,-99.99,,2013-05-02 21:42:00,
2013-05-02 13:53:00,42.0,39.0,30.14,South,170,32.0,44.0,88,-99.99,,,-99.99,,2013-05-02 21:53:00,
2013-05-02 14:00:00,41.0,39.0,30.17,South,180,34.0,43.0,92,-99.99,,,-99.99,,2013-05-02 22:00:00,
2013-05-02 14:42:00,41.0,39.0,30.17,South,180,34.0,43.0,92,-99.99,,,-99.99,,2013-05-02 22:42:00,
2013-05-02 14:52:00,41.0,39.0,30.17,South,180,34.0,43.0,92,-99.99,,,-99.99,,2013-05-02 22:52:00,
2013-05-02 15:00:00,41.0,40.0,30.20,South,170,34.0,44.0,95,-99.99,,,-99.99,,2013-05-02 23:00:00,
2013-05-02 15:42:00,41.0,40.0,30.20,South,170,34.0,44.0,95,-99.99,,,-99.99,,2013-05-02 23:42:00,
2013-05-02 15:51:00,41.0,40.0,30.20,South,170,34.0,44.0,95,-99.99,,,-99.99,,2013-05-02 23:51:00,
2013-05-02 16:00:00,42.0,40.0,30.20,South,180,33.0,41.0,91,-99.99,,,-99.99,,2013-05-03 00:00:00,
2013-05-02 16:41:00,42.0,40.0,30.20,South,180,33.0,41.0,91,-99.99,,,-99.99,,2013-05-03 00:41:00,
2013-05-02 16:52:00,42.0,40.0,30.20,South,180,33.0,41.0,91,-99.99,,,-99.99,,2013-05-03 00:52:00,
2013-05-02 17:00:00,42.0,40.0,30.21,South,170,33.0,41.0,91,-99.99,,,-99.99,,2013-05-03 01:00:00,
2013-05-02 17:41:00,42.0,40.0,30.21,South,170,33.0,41.0,91,-99.99,,,-99.99,,2013-05-03 01:41:00,
2013-05-02 17:51:00,42.0,40.0,30.21,South,170,33.0,41.0,91,-99.99,,,-99.99,,2013-05-03 01:51:00,
2013-05-02 18:00:00,41.0,40.0,30.23,SSE,160,31.0,41.0,95,-99.99,,,-99.99,,2013-05-03 02:00:00,
2013-05-02 18:41:00,41.0,40.0,30.23,SSE,160,31.0,41.0,95,-99.99,,,-99.99,,2013-05-03 02:41:00,
2013-05-02 18:52:00,41.0,40.0,30.23,SSE,160,31.0,41.0,95,-99.99,,,-99.99,,2013-05-03 02:52:00,
2013-05-02 19:00:00,42.0,40.0,30.24,South,170,33.0,41.0,91,-99.99,,,-99.99,,2013-05-03 03:00:00,
2013-05-02 19:42:00,42.0,40.0,30.24,South,170,33.0,41.0,91,-99.99,,,-99.99,,2013-05-03 03:42:00,
2013-05-02 19:52:00,42.0,40.0,30.24,South,170,33.0,41.0,91,-99.99,,,-99.99,,2013-05-03 03:52:00,
2013-05-02 20:00:00,41.0,40.0,30.26,SSE,160,32.0,44.0,95,-99.99,,,-99.99,,2013-05-03 04:00:00,
2013-05-02 20:42:00,41.0,40.0,30.26,SSE,160,32.0,44.0,95,-99.99,,,-99.99,,2013-05-03 04:42:00,
2013-05-02 20:52:00,41.0,40.0,30.26,SSE,160,32.0,44.0,95,-99.99,,,-99.99,,2013-05-03 04:52:00,
2013-05-02 21:00:00,42.0,40.0,30.29,South,180,29.0,41.0,91,-99.99,,,-99.99,,2013-05-03 05:00:00,
2013-05-02 21:42:00,42.0,40.0,30.29,South,180,29.0,41.0,91,-99.99,,,-99.99,,2013-05-03 05:42:00,
2013-05-02 21:52:00,42.0,40.0,30.29,South,180,29.0,41.0,91,-99.99,,,-99.99,,2013-05-03 05:52:00,
2013-05-02 22:00:00,42.0,40.0,30.32,South,170,33.0,47.0,91,-99.99,,,-99.99,,2013-05-03 06:00:00,
2013-05-02 22:41:00,42.0,40.0,30.32,South,170,33.0,47.0,91,-99.99,,,-99.99,,2013-05-03 06:41:00,
2013-05-02 22:51:00,42.0,40.0,30.32,South,170,33.0,47.0,91,-99.99,,,-99.99,,2013-05-03 06:51:00,
2013-05-02 23:00:00,42.0,40.0,30.33,SSE,160,38.0,46.0,91,-99.99,,,-99.99,,2013-05-03 07:00:00,
2013-05-02 23:42:00,42.0,40.0,30.33,SSE,160,38.0,46.0,91,-99.99,,,-99.99,,2013-05-03 07:42:00,
2013-05-02 23:52:00,42.0,40.0,30.33,SSE,160,38.0,46.0,91,-99.99,,,-99.99,,2013-05-03 07:52:00,